[[{"header":{"parameterUnit":"m.s-1","parameterCategory":1,"la1":30.2991,"la2":30.254,"lo1":-89.0895,"lo2":-89.0444,"dy":0.0017,"dx":0.0017,"nx":28,"ny":28,"refTime":"2024-08-22T03:00:00:Z","depth":0,"parameterNumber":2,"parameterNumberName":"U-component_of_WINDS"},"data":[0,0,0,0,0,0,0,0,0,0,0,0,0,0,0,0,0,0,0,0,0,0,0,0,0,0,0,0,0,0,0,0,0,0,0,0,0,0,0,0,0,0,0,0,0,0,0,0,0,0,0,0,0,0,0,0,0,0,-0.8627,-0.8626,0,-0.8531,-0.853,-0.8529,-0.8468,-0.8468,-0.8467,-0.8467,-0.8368,-0.8366,-0.8363,0,0,0,0,0,0,0,0,0,0,0,0,0,-0.8754,-0.8752,-0.8627,-0.8626,-0.8624,-0.8532,-0.853,-0.8529,-0.8468,-0.8468,-0.8467,-0.8467,-0.8369,-0.8366,-0.8363,0,0,0,0,0,0,0,0,0,0,0,0,0,-0.8683,-0.8752,-0.8627,-0.8583,-0.8578,-0.8532,-0.853,-0.8529,-0.8468,-0.8468,-0.8467,-0.8467,-0.837,-0.8366,-0.8363,-0.8353,0,0,-0.8352,-0.8351,0,0,0,0,0,0,0,0,-0.8687,-0.8678,-0.8591,-0.8586,-0.858,-0.8511,-0.8539,-0.847,-0.8468,-0.851,-0.8467,-0.8466,-0.8416,-0.8409,-0.8392,-0.8348,-0.8344,-0.8352,-0.835,-0.8348,-0.8348,0,0,0,0,0,0,0,-0.8692,-0.8682,-0.8589,-0.8589,-0.8583,-0.8567,-0.8556,-0.8525,-0.8467,-0.8506,-0.8501,-0.8491,-0.8413,-0.8395,-0.8389,-0.8342,-0.8352,-0.8349,-0.8347,-0.8346,-0.8285,-0.8285,0,0,0,0,0,0,-0.8704,-0.8687,-0.8592,-0.8586,-0.8633,-0.8565,-0.8553,-0.8534,-0.8467,-0.8457,-0.8492,-0.8489,-0.8402,-0.8393,-0.8385,-0.8369,-0.8349,-0.8345,-0.8343,-0.8284,-0.8285,-0.8285,0,0,0,0,0,0,-0.8707,-0.8696,-0.8596,-0.8635,-0.8621,-0.8564,-0.8542,-0.8532,-0.8515,-0.8456,-0.8445,-0.8485,-0.8401,-0.839,-0.8361,-0.8365,-0.8344,-0.8341,-0.8284,-0.8284,-0.8285,-0.8336,0,0,0,0,0,0,-0.8711,-0.8698,-0.8694,-0.8635,-0.8619,-0.8574,-0.8542,-0.8531,-0.8509,-0.8504,-0.8447,-0.8437,-0.84,-0.8367,-0.8358,-0.836,-0.8338,-0.8283,-0.8284,-0.8285,-0.8334,-0.8339,-0.8343,0,0,0,0,0,-0.8716,-0.8712,-0.8694,-0.8683,-0.8613,-0.8574,-0.8565,-0.8523,-0.8509,-0.8505,-0.8467,-0.8439,-0.8366,-0.8364,-0.8354,-0.8355,-0.8283,-0.8284,-0.8285,-0.8332,-0.8338,-0.8343,0,0,0,0,0,0,-0.8772,-0.8703,-0.8683,-0.866,-0.8623,-0.8564,-0.8557,-0.853,-0.8496,-0.8493,-0.8441,-0.8429,-0.8405,-0.8376,-0.8376,-0.8341,-0.8321,-0.832,-0.8361,-0.8365,-0.837,-0.8377,-0.8335,0,0,0,0,0,-0.8782,-0.8756,-0.8698,-0.8683,-0.8666,-0.8615,-0.8596,-0.8567,-0.8527,-0.8511,-0.8471,-0.8433,-0.8401,-0.8382,-0.8349,-0.8329,-0.8316,-0.8325,-0.8329,-0.8333,-0.8333,-0.832,-0.8323,-0.8289,-0.8289,-0.8289,0,0,-0.8801,-0.8761,-0.8748,-0.8693,-0.8662,-0.8636,-0.8602,-0.8577,-0.8557,-0.8507,-0.8477,-0.8447,-0.84,-0.8376,-0.8363,-0.8352,-0.8339,-0.8334,-0.8338,-0.8335,-0.8321,-0.8325,-0.8328,-0.8289,-0.8289,-0.8289,0,0,-0.8824,-0.8791,-0.8776,-0.8744,-0.8697,-0.8663,-0.8659,-0.8604,-0.8582,-0.8551,-0.8513,-0.8488,-0.8435,-0.8404,-0.8381,-0.8392,-0.8364,-0.8382,-0.8405,-0.8393,-0.8396,-0.8398,-0.8402,-0.8404,-0.8382,-0.8382,-0.8382,0,-0.8855,-0.8816,-0.8771,-0.8747,-0.8724,-0.8678,-0.8661,-0.8633,-0.8577,-0.8562,-0.855,-0.8482,-0.8447,-0.8415,-0.8418,-0.8401,-0.8395,-0.8389,-0.8399,-0.8401,-0.8402,-0.8405,-0.8407,-0.8385,-0.8385,-0.8384,-0.8384,0,-0.8855,-0.8829,-0.8821,-0.8769,-0.8745,-0.8726,-0.8677,-0.8658,-0.863,-0.8597,-0.8567,-0.8524,-0.8482,-0.8472,-0.8444,-0.8435,-0.843,-0.8409,-0.8388,-0.8409,-0.8411,-0.8412,-0.8389,-0.8388,-0.8387,-0.8386,0,0,-0.8912,-0.8835,-0.8833,-0.8809,-0.8753,-0.8731,-0.8708,-0.8668,-0.8653,-0.8615,-0.8595,-0.8551,-0.8531,-0.8506,-0.8474,-0.8464,-0.8475,-0.8444,-0.8442,-0.8452,-0.8462,-0.8479,-0.8481,-0.8456,-0.8456,-0.8456,-0.8466,0,-0.8927,-0.8885,-0.8844,-0.8817,-0.8791,-0.8746,-0.8727,-0.869,-0.8659,-0.8632,-0.8596,-0.8566,-0.8542,-0.8527,-0.8514,-0.8477,-0.8477,-0.8475,-0.8437,-0.8436,-0.8451,-0.8482,-0.8499,-0.8511,-0.8467,-0.8467,-0.8467,0,-0.8939,-0.8905,-0.8875,-0.8821,-0.8809,-0.8792,-0.8752,-0.8727,-0.8684,-0.8661,-0.8633,-0.8599,-0.8573,-0.8554,-0.8517,-0.8517,-0.8499,-0.8478,-0.8477,-0.8473,-0.8453,-0.8479,-0.8514,-0.8516,-0.8468,-0.8468,-0.8468,0,-0.8984,-0.893,-0.8905,-0.8886,-0.8822,-0.8811,-0.8784,-0.8741,-0.8719,-0.8683,-0.8668,-0.863,-0.8609,-0.8579,-0.8536,-0.8527,-0.8504,-0.8482,-0.8485,-0.8486,-0.8482,-0.8483,-0.8516,-0.847,-0.847,-0.847,-0.847,0,-0.9005,-0.8989,-0.8924,-0.8909,-0.889,-0.8842,-0.8823,-0.8792,-0.8754,-0.8731,-0.869,-0.8669,-0.8614,-0.8587,-0.8553,-0.8527,-0.8518,-0.8499,-0.849,-0.8503,-0.8506,-0.8491,-0.8489,-0.847,-0.847,-0.847,-0.847,0,-0.9052,-0.9008,-0.8978,-0.8921,-0.8905,-0.8894,-0.8844,-0.8827,-0.8793,-0.8765,-0.8756,-0.8702,-0.8668,-0.8622,-0.8574,-0.8551,-0.853,-0.8516,-0.8545,-0.854,-0.8546,-0.8546,-0.857,-0.8571,-0.8525,-0.8525,-0.8526,0,-0.9069,-0.9056,-0.8997,-0.8979,-0.8953,-0.8925,-0.8903,-0.8854,-0.8833,-0.8783,-0.8772,-0.8735,-0.8703,-0.865,-0.8607,-0.857,-0.8555,-0.8565,-0.8549,-0.8562,-0.8555,-0.8557,-0.8555,-0.857,-0.8571,-0.8571,-0.8572,0,-0.9104,-0.9083,-0.9052,-0.9014,-0.8989,-0.8956,-0.8922,-0.8909,-0.8854,-0.8831,-0.8796,-0.8772,-0.8722,-0.8686,-0.8643,-0.8614,-0.8584,-0.8577,-0.8576,-0.8589,-0.8607,-0.8598,-0.8557,-0.8577,-0.8577,-0.8576,-0.8576,-0.8576,-0.9137,-0.9123,-0.9079,-0.9046,-0.9015,-0.8984,-0.8965,-0.8929,-0.8899,-0.8856,-0.8828,-0.8795,-0.8751,-0.869,-0.8663,-0.8636,-0.8624,-0.8622,-0.8621,-0.8622,-0.8626,-0.8611,-0.8627,-0.8627,-0.8627,-0.8627,-0.8627,0,-0.917,-0.9139,-0.911,-0.9063,-0.9037,-0.9011,-0.8971,-0.8951,-0.8922,-0.8884,-0.8854,-0.8813,-0.8778,-0.8731,-0.8692,-0.8679,-0.8664,-0.8671,-0.8672,-0.8665,-0.8639,-0.8644,-0.8683,-0.8683,-0.8683,-0.8683,-0.8683,-0.8683,-0.9184,-0.9159,-0.9133,-0.9091,-0.906,-0.9028,-0.9007,-0.8978,-0.8948,-0.8905,-0.8875,-0.8845,-0.8803,-0.8761,-0.8727,-0.8714,-0.8702,-0.8713,-0.8696,-0.8672,-0.8667,-0.8662,-0.8667,-0.871,-0.8711,-0.8725,-0.8725,-0.8725]},{"header":{"parameterUnit":"m.s-1","parameterCategory":1,"la1":30.2991,"la2":30.254,"lo1":-89.0895,"lo2":-89.0444,"dy":0.0017,"dx":0.0017,"nx":28,"ny":28,"refTime":"2024-08-22T03:00:00:Z","depth":0,"parameterNumber":3,"parameterNumberName":"V-component_of_WINDS"},"data":[0,0,0,0,0,0,0,0,0,0,0,0,0,0,0,0,0,0,0,0,0,0,0,0,0,0,0,0,0,0,0,0,0,0,0,0,0,0,0,0,0,0,0,0,0,0,0,0,0,0,0,0,0,0,0,0,0,0,-0.7442,-0.7441,0,-0.7398,-0.7398,-0.7397,-0.7411,-0.7412,-0.7413,-0.7414,-0.7367,-0.7365,-0.7363,0,0,0,0,0,0,0,0,0,0,0,0,0,-0.7537,-0.7535,-0.7442,-0.7441,-0.7441,-0.7398,-0.7398,-0.7397,-0.7411,-0.7412,-0.7413,-0.7414,-0.7368,-0.7366,-0.7363,0,0,0,0,0,0,0,0,0,0,0,0,0,-0.7495,-0.7535,-0.7442,-0.7442,-0.7442,-0.7398,-0.7398,-0.7397,-0.741,-0.7412,-0.7413,-0.7415,-0.7369,-0.7366,-0.7363,-0.7315,0,0,-0.7353,-0.7352,0,0,0,0,0,0,0,0,-0.7497,-0.7491,-0.7443,-0.7442,-0.7442,-0.7411,-0.7414,-0.7369,-0.741,-0.7422,-0.7414,-0.7415,-0.7381,-0.7377,-0.7365,-0.7313,-0.7311,-0.7353,-0.7351,-0.735,-0.7349,0,0,0,0,0,0,0,-0.75,-0.7493,-0.7424,-0.7442,-0.7441,-0.7445,-0.744,-0.7406,-0.7394,-0.7421,-0.7422,-0.7417,-0.7381,-0.7368,-0.7364,-0.731,-0.7353,-0.735,-0.7348,-0.7347,-0.722,-0.7219,0,0,0,0,0,0,-0.7503,-0.7495,-0.7426,-0.7423,-0.7473,-0.7442,-0.7437,-0.742,-0.7395,-0.7392,-0.7416,-0.7418,-0.7373,-0.7368,-0.7363,-0.7308,-0.735,-0.7347,-0.7345,-0.7222,-0.722,-0.7218,0,0,0,0,0,0,-0.7505,-0.7497,-0.7428,-0.746,-0.7451,-0.7439,-0.7419,-0.7418,-0.7406,-0.7391,-0.7388,-0.7406,-0.7374,-0.7367,-0.7328,-0.7307,-0.7345,-0.7342,-0.7224,-0.7221,-0.7219,-0.7197,0,0,0,0,0,0,-0.7508,-0.7498,-0.7479,-0.7459,-0.7449,-0.7393,-0.7418,-0.7416,-0.7401,-0.7403,-0.738,-0.7378,-0.7375,-0.7333,-0.7325,-0.7303,-0.734,-0.7225,-0.7223,-0.722,-0.72,-0.7195,-0.719,0,0,0,0,0,-0.7511,-0.7474,-0.7478,-0.747,-0.7426,-0.7392,-0.7386,-0.7384,-0.7399,-0.7381,-0.7371,-0.7379,-0.731,-0.7328,-0.732,-0.7297,-0.7227,-0.7223,-0.722,-0.7202,-0.7196,-0.719,0,0,0,0,0,0,-0.749,-0.7471,-0.7476,-0.743,-0.7413,-0.7394,-0.7371,-0.7377,-0.7354,-0.7357,-0.7354,-0.7349,-0.7309,-0.7299,-0.7319,-0.7251,-0.7271,-0.7265,-0.726,-0.7254,-0.7249,-0.7253,-0.7337,0,0,0,0,0,-0.7481,-0.7455,-0.7439,-0.7401,-0.7392,-0.7383,-0.7368,-0.7368,-0.7349,-0.7342,-0.7329,-0.7311,-0.7285,-0.7268,-0.7244,-0.7198,-0.7195,-0.7178,-0.7173,-0.7169,-0.7165,-0.7143,-0.7137,-0.7208,-0.7208,-0.7208,0,0,-0.746,-0.7446,-0.743,-0.7396,-0.7383,-0.7357,-0.7376,-0.7347,-0.7328,-0.7337,-0.73,-0.729,-0.7269,-0.7227,-0.7208,-0.7217,-0.7145,-0.7165,-0.7162,-0.716,-0.7139,-0.7132,-0.7127,-0.7205,-0.7206,-0.7206,0,0,-0.741,-0.7396,-0.7364,-0.735,-0.733,-0.7325,-0.7317,-0.7298,-0.7293,-0.7256,-0.7263,-0.724,-0.7195,-0.7181,-0.7168,-0.7115,-0.7122,-0.7107,-0.7082,-0.706,-0.7055,-0.705,-0.7034,-0.7027,-0.7103,-0.7103,-0.7102,0,-0.7387,-0.7348,-0.7346,-0.7318,-0.7304,-0.7312,-0.728,-0.7267,-0.7239,-0.7229,-0.724,-0.7187,-0.7173,-0.7129,-0.7117,-0.7105,-0.7097,-0.711,-0.7056,-0.7051,-0.7046,-0.7031,-0.7024,-0.7101,-0.7101,-0.7101,-0.7102,0,-0.7322,-0.7295,-0.7272,-0.7247,-0.723,-0.7199,-0.7194,-0.7177,-0.7179,-0.7173,-0.7136,-0.712,-0.7094,-0.7083,-0.7083,-0.704,-0.7047,-0.7056,-0.7076,-0.7038,-0.7024,-0.7017,-0.7099,-0.71,-0.71,-0.71,0,0,-0.7257,-0.7234,-0.7225,-0.7216,-0.7195,-0.7174,-0.7144,-0.712,-0.7107,-0.7087,-0.7064,-0.7027,-0.7037,-0.7022,-0.7021,-0.7002,-0.6965,-0.7015,-0.7014,-0.7008,-0.6919,-0.6914,-0.6907,-0.6969,-0.6967,-0.6966,-0.6922,0,-0.7207,-0.7157,-0.7156,-0.711,-0.7087,-0.7095,-0.7069,-0.7054,-0.7048,-0.7027,-0.702,-0.6995,-0.7008,-0.7,-0.6981,-0.6973,-0.6947,-0.6976,-0.6948,-0.6947,-0.6955,-0.6898,-0.6892,-0.685,-0.6916,-0.6915,-0.6914,0,-0.7142,-0.7124,-0.7076,-0.7061,-0.7051,-0.7028,-0.7008,-0.6987,-0.6971,-0.6968,-0.6952,-0.6955,-0.6926,-0.6946,-0.6907,-0.6927,-0.6915,-0.691,-0.6908,-0.6907,-0.693,-0.6898,-0.6837,-0.6832,-0.6904,-0.6905,-0.6906,0,-0.7104,-0.7066,-0.7033,-0.7024,-0.7005,-0.699,-0.6981,-0.6966,-0.6952,-0.6933,-0.6925,-0.6902,-0.6891,-0.6874,-0.6871,-0.6885,-0.6833,-0.6851,-0.6831,-0.6831,-0.682,-0.6822,-0.6759,-0.6809,-0.6809,-0.6809,-0.681,0,-0.7049,-0.702,-0.7016,-0.6996,-0.6964,-0.6963,-0.6932,-0.6925,-0.6912,-0.6891,-0.6895,-0.6876,-0.6872,-0.6852,-0.6849,-0.6819,-0.6813,-0.6811,-0.6811,-0.6811,-0.6812,-0.6805,-0.6809,-0.6808,-0.6808,-0.6808,-0.6809,0,-0.7001,-0.6996,-0.6962,-0.6948,-0.6944,-0.6921,-0.6909,-0.6891,-0.6885,-0.6859,-0.6853,-0.6845,-0.6822,-0.6817,-0.6788,-0.6787,-0.6752,-0.6753,-0.6758,-0.6759,-0.674,-0.6742,-0.6672,-0.6664,-0.6717,-0.6717,-0.6716,0,-0.6968,-0.6946,-0.693,-0.6918,-0.6909,-0.6887,-0.6874,-0.6872,-0.6858,-0.6839,-0.6824,-0.6801,-0.6783,-0.6746,-0.6738,-0.6717,-0.6719,-0.6696,-0.6716,-0.6719,-0.6722,-0.6724,-0.6723,-0.6693,-0.6692,-0.6692,-0.6691,0,-0.691,-0.691,-0.6891,-0.6872,-0.6856,-0.6841,-0.6826,-0.6815,-0.6811,-0.6796,-0.6773,-0.6759,-0.6732,-0.671,-0.669,-0.6681,-0.6686,-0.6685,-0.668,-0.6681,-0.6686,-0.6686,-0.675,-0.6687,-0.6687,-0.6688,-0.6688,-0.6688,-0.687,-0.6852,-0.6839,-0.6819,-0.6808,-0.6795,-0.6778,-0.6771,-0.6752,-0.6731,-0.6731,-0.6706,-0.6692,-0.6666,-0.6656,-0.6637,-0.6644,-0.6636,-0.6634,-0.6632,-0.6632,-0.6687,-0.6633,-0.6633,-0.6633,-0.6633,-0.6633,0,-0.6815,-0.6807,-0.6788,-0.6769,-0.6753,-0.676,-0.6745,-0.6731,-0.671,-0.6697,-0.668,-0.6655,-0.6634,-0.6625,-0.6605,-0.6592,-0.6594,-0.6587,-0.6589,-0.6587,-0.6625,-0.6633,-0.6586,-0.6586,-0.6586,-0.6586,-0.6586,-0.6586,-0.6784,-0.6756,-0.6754,-0.6721,-0.6714,-0.6691,-0.6682,-0.667,-0.666,-0.6632,-0.6616,-0.661,-0.6599,-0.6579,-0.6561,-0.6558,-0.6552,-0.6544,-0.6543,-0.6579,-0.6584,-0.6589,-0.6597,-0.6542,-0.6542,-0.6507,-0.6507,-0.6507]}]]